Regional Weather Roundup
Issued by NWS

Home | Current Version | Previous Version | Text Only | Print | Product List | Glossary On
Versions: 1 2 3 4 5 6 7 8 9 10 11 12 13 14 15 16 17 18 19 20 21 22 23 24 25 26 27 28 29 30 31 32 33 34 35 36 37 38 39 40 41 42 43 44 45 46 47 48 49 50
000
ASUS45 KPSR 150210
RWRAZ

ARIZONA REGIONAL HOURLY WEATHER ROUNDUP
NATIONAL WEATHER SERVICE PHOENIX AZ
700 PM MST SUN SEP 14 2014

NOTE: FAIR INDICATES FEW OR NO CLOUDS BELOW 12,000 FEET WITH NO
SIGNIFICANT WEATHER AND/OR OBSTRUCTIONS TO VISIBILITY.

AZZ001>003-036-150300-
NORTHWEST ARIZONA

CITY           SKY/WX    TMP DP  RH WIND       PRES   REMARKS
BULLHEAD CITY  CLEAR    102  41  12 CALM      29.70S
KINGMAN        CLEAR     85  45  24 W5        29.93S
$$

AZZ004>008-015-016-018-150300-
NORTH CENTRAL ARIZONA

CITY           SKY/WX    TMP DP  RH WIND       PRES   REMARKS
GRAND CANYON   MOCLDY    63  49  60 CALM      30.19R
PRESCOTT       PTCLDY    79  53  40 W3        30.07R
FLAGSTAFF      PTCLDY    62  50  64 SW3       30.23R
PAYSON         CLEAR     75  52  43 CALM      30.10S
PAGE           CLEAR     86  36  16 S5        29.98S
$$

AZZ009>014-017-150300-
NORTHEAST ARIZONA

CITY           SKY/WX    TMP DP  RH WIND       PRES   REMARKS
WINSLOW        MOCLDY    78  44  29 SW7       30.04R
SAINT JOHNS    MOCLDY    73  50  44 E8        30.12R
SHOW LOW       PTCLDY    66  46  48 S9        30.20R
$$

AZZ023-150300-
GREATER PHOENIX AREA

CITY           SKY/WX    TMP DP  RH WIND       PRES   REMARKS
PHOENIX        PTCLDY    98  56  24 N7        29.73S
BUCKEYE          N/A     91  61  35 NE5       29.75S
GLENDALE       PTCLDY    97  57  26 CALM      29.75S
LUKE AFB       CLEAR     96  59  29 W5        29.74S
DEER VALLEY    CLEAR     94  56  27 CALM      29.76S
SCOTTSDALE     CLEAR     96  57  27 CALM      29.78S
MESA-FALCON    PTCLDY    95  57  28 W7        29.75S
MESA-GATEWAY   PTCLDY    97  55  24 CALM      29.78S
CHANDLER       PTCLDY    97  57  26 CALM      29.75S
$$

AZZ027-028-150300-
SOUTHWEST MARICOPA COUNTY AND PINAL COUNTY

CITY           SKY/WX    TMP DP  RH WIND       PRES   REMARKS
CASA GRANDE    CLEAR     93  57  29 CALM      29.77S
$$

AZZ503-504-507>509-150300-
SOUTHEAST ARIZONA

CITY           SKY/WX    TMP DP  RH WIND       PRES   REMARKS
TUCSON         CLEAR     92  55  28 E8        29.88R
DAVIS-MONTHAN  CLEAR     90  57  33 NE8       29.86R
RYAN FIELD       N/A     90  55  31 NE6       29.85R
NOGALES        MOCLDY    80  58  46 E8        29.96R
SIERRA VISTA   CLEAR     77  57  50 S6        30.04R
DOUGLAS        CLEAR     80  54  40 E9        30.01R
SAFFORD        CLEAR     84  54  35 SE9       29.94S
$$

AZZ020-021-025-026-031-150300-
SOUTHWEST ARIZONA

CITY           SKY/WX    TMP DP  RH WIND       PRES   REMARKS
YUMA           CLEAR    104  54  19 S5        29.65S HX 102
$$

CAZ031-033-041-043-047-048-061-150300-
SOUTHERN CALIFORNIA

CITY           SKY/WX    TMP DP  RH WIND       PRES   REMARKS
DOWNTOWN L.A.  CLEAR     84  61  45 CALM      29.68R
L.A. AIRPORT   PTCLDY    77  62  59 W8        29.69S
SAN DIEGO      PTCLDY    81  69  67 W3        29.73R
BURBANK        CLEAR     98  48  18 W9        29.71R
ONTARIO        PTCLDY    97  49  19 SW8       29.72R
RIVERSIDE      CLEAR     96  49  20 W8        29.72R
PALM SPRINGS   PTCLDY   101  56  22 E5        29.69R HX 100
EL CENTRO NAS  PTCLDY   102  56  21 SW6       29.63S HX 101
IMPERIAL       CLEAR    105  56  19 S6        29.62S HX 104
BLYTHE         CLEAR    102  55  20 NE5       29.67S HX 100
NEEDLES        CLEAR    102  38  11 E5        29.71S
$$

NVZ020-UTZ003-150300-
SOUTHERN NEVADA-UTAH

CITY           SKY/WX    TMP DP  RH WIND       PRES   REMARKS
LAS VEGAS      PTCLDY    97  42  15 S7        29.77S
SALT LAKE CITY PTCLDY    78  38  23 N5        29.98S
$$

NMZ009-TXZ055-150300-
NEW MEXICO-WEST TEXAS

CITY           SKY/WX    TMP DP  RH WIND       PRES   REMARKS
ALBUQUERQUE    PTCLDY    74  51  44 S14       30.17R
EL PASO        MOCLDY    74  58  57 E15       30.09R
$$


........................KEY........................
SKY/WX - SKY CONDITION/WEATHER
TMP    - TEMPERATURE IN FAHRENHEIT
DP     - DEW POINT IN FAHRENHEIT
RH     - RELATIVE HUMIDITY IN PERCENT
WIND   - DIRECTION AND SPEED IN MILES PER HOUR (MPH)
VRB    - VARIABLE WIND DIRECTION
PRES   - MEAN SEA LEVEL PRESSURE IN INCHES OF MERCURY
         F - FALLING PRESSURE   R - RISING PRESSURE
         S - STEADY PRESSURE
VSB    - VISIBILITY IN MILES
HX     - HEAT INDEX IN FAHRENHEIT
WCI    - WIND CHILL INDEX IN FAHRENHEIT
TC     - TEMPERATURE IN CELSIUS WHICH IS ALSO KNOWN AS
         TEMPERATURE IN CENTIGRADE
AFB    - AIR FORCE BASE
         LUKE AFB IS LUKE AIR FORCE BASE
         DAVIS-MONTHAN IS DAVIS-MONTHAN AIR FORCE BASE
NAS    - NAVAL AIR STATION
         EL CENTRO NAS IS EL CENTRO NAVAL AIR STATION
N/A    - NOT AVAILABLE


USA.gov is the U.S. government's official web portal to all federal, state and local government web resources and services.